Regional Weather Roundup
Issued by NWS

Home | Current Version | Previous Version | Text Only | Print | Product List | Glossary On
Versions: 1 2 3 4 5 6 7 8 9 10 11 12 13 14 15 16 17 18 19 20 21 22 23 24 25 26 27 28 29 30 31 32 33 34 35 36 37 38 39 40 41 42 43 44 45 46 47 48 49 50
000
ASUS44 KMEG 111110
RWRTN
TENNESSEE HOURLY STATE WEATHER ROUNDUP
NATIONAL WEATHER SERVICE MEMPHIS TN
500 AM CST THU FEB 11 2016

TNZ002-004-019-021-049-052-054-088>092-111200-
WEST TENNESSEE

CITY           SKY/WX    TMP DP  RH WIND       PRES   REMARKS
MEMPHIS INTL   CLEAR     32  15  49 NE7       30.06R WCI  26
NWS MEMPHIS      N/A     29 N/A N/A MISG        N/A
JACKSON        CLEAR     25  15  66 SE6       30.10S WCI  18
DYERSBURG      CLEAR     27  16  63 NE10      30.15R WCI  17
UNION CITY     CLEAR     21  18  86 E5        30.16R WCI  15
PARIS          CLEAR     21  16  79 NE6       30.16R WCI  14
LEXINGTON      CLEAR     21  16  79 NE6       30.11S WCI  14
$$

TNZ008-025-027-028-033-062-065-066-111200-
NORTH MIDDLE TENNESSEE

CITY           SKY/WX    TMP DP  RH WIND       PRES   REMARKS
NASHVILLE      CLOUDY    26  20  77 E5        30.19R WCI  20
CLARKSVILLE    CLOUDY    25  21  85 E6        30.18R WCI  18
SMYRNA         MOCLDY    25  22  88 E5        30.20R WCI  19
COOKEVILLE     CLOUDY    25  19  80 CALM      30.15R
CROSSVILLE     CLOUDY    23  17  78 CALM      30.11R
$$

TNZ061-075-076-078-094-096-097-111200-
SOUTH MIDDLE TENNESSEE

CITY           SKY/WX    TMP DP  RH WIND       PRES   REMARKS
FAYETTEVILLE   CLEAR     25  19  80 E3        30.13S
TULLAHOMA      MOCLDY    23  21  93 CALM      30.14R
WINCHESTER     CLOUDY    25  19  80 E7        30.15R WCI  17
MCMINNVILLE    CLOUDY    25  19  80 NE6       30.14S WCI  18
COLUMBIA       CLEAR     21  21 100 CALM      30.13S
SHELBYVILLE    PTCLDY    25  21  86 CALM      30.17R
$$

TNZ017-018-042-046-047-111200-
NORTHEAST TENNESSEE

CITY           SKY/WX    TMP DP  RH WIND       PRES   REMARKS
TRI CITIES     CLOUDY    19  10  68 SW3       30.13R
$$

TNZ012-013-036-069-073-074-111200-
CENTRAL EAST TENNESSEE

CITY           SKY/WX    TMP DP  RH WIND       PRES   REMARKS
KNOXVILLE      CLOUDY    26  19  74 SW5       30.17R WCI  20
OAK RIDGE      CLOUDY    27  17  66 CALM      30.19R
GATLINBURG     CLOUDY    25  16  68 CALM      30.17R
MORRISTOWN     CLOUDY    23  16  74 CALM      30.14R
$$

TNZ083-085-099-111200-
SOUTHEAST TENNESSEE

CITY           SKY/WX    TMP DP  RH WIND       PRES   REMARKS
CHATTANOOGA    PTCLDY    28  18  66 CALM      30.19R
$$

SKY/WX REPORTED AS FAIR MEANS FEW OR NO CLOUDS BELOW
12 THOUSAND FEET.




USA.gov is the U.S. government's official web portal to all federal, state and local government web resources and services.